Location: ???????
(31.2156°N, 45.5386°E)
Time: 08:40:39
(UTC+00:00)

Daily predictions for brighter satellites

Satellite Brightness Start Highest point End
(mag) Time Altitude Azimuth Time Altitude Azimuth Time Altitude Azimuth
Cosmos 968 Rocket 3.7 14:38:10 10° NNW 14:43:26 80° WSW 14:48:39 10° S
NOSS 3-2 (A) 3.6 14:39:34 10° S 14:44:47 44° ESE 14:50:28 10° NE
CORIOLIS 4.2 14:42:15 10° SSE 14:47:35 89° ENE 14:52:57 10° NNW
USA 116 4.3 14:45:31 10° NE 14:48:30 29° E 14:51:45 10° SSE
Cosmos 1271 Rocket 2.9 14:45:40 10° N 14:49:41 81° W 14:53:40 10° S
COBE Rocket 4.0 14:47:34 10° N 14:52:42 89° ESE 14:57:40 10° SSW
Cosmos 1300 4.3 14:52:30 10° SE 14:54:46 15° E 14:57:02 10° NE
H-2A R/B 3.5 14:53:17 10° S 14:57:06 59° W 15:00:58 10° NNW
Okean-O 2.7 14:53:50 10° SSE 14:58:15 84° WSW 15:02:41 10° NNW
Cosmos 2082 Rocket 3.8 14:55:28 10° NNE 14:58:24 14° ENE 15:00:45 11° E
IUS-18 SRM-1 3.9 14:49:18 10° WSW 15:00:31 47° S 15:03:30 12° ESE
Cosmos 1821 Rocket 4.4 14:57:58 10° NNW 15:04:02 67° W 15:10:10 10° S
Delta 2 Rocket 4.5 14:58:32 10° WSW 15:04:13 43° SSE 15:09:22 13° E
COSMO-SKYMED 1 2.6 15:00:06 10° N 15:04:28 86° WNW 15:08:48 10° SSW
Cosmos 1605 Rocket 4.2 14:58:55 10° N 15:04:46 45° E 15:10:32 10° SSE
BREEZE-M DEB (TANK) 3.5 14:56:28 10° NW 15:05:42 65° NE 15:08:25 12° ESE
OAO 2 Rocket 3.4 15:00:54 10° WNW 15:06:09 77° NNE 15:10:46 14° E
Cosmos 1727 Rocket 4.2 15:01:50 10° SSE 15:07:38 44° E 15:13:25 10° NNE
Cosmos 839 Rocket 4.4 15:02:07 10° NNW 15:08:23 53° ENE 15:15:49 10° SE
CZ-4 R/B 1.6 15:04:56 10° SSE 15:08:55 49° ENE 15:12:58 10° N
NOSS 3-2 (C) 3.6 15:04:34 10° S 15:09:47 43° ESE 15:15:25 10° NE
Cosmos 1934 Rocket 4.0 15:03:33 10° N 15:09:56 83° E 15:16:18 10° S
Cosmos 44 3.9 15:06:27 10° S 15:11:06 37° ESE 15:15:33 10° NE
COSMOS 2406 3.2 15:06:33 10° NNW 15:12:16 65° ENE 15:17:55 10° SSE
OAO 3 Copernicus 4.5 15:07:19 10° W 15:12:24 70° NNW 15:16:20 17° ENE
EO 1 Delta rocket 4.2 15:08:16 10° SE 15:12:37 41° ENE 15:17:02 10° N
NOAA 12 4.4 15:09:20 10° S 15:14:33 71° WSW 15:19:51 10° NNW
CZ-4C R/B 4.4 15:08:17 10° NW 15:15:33 43° WSW 15:23:22 10° S
SL-4 R/B 3.2 15:16:46 10° WNW 15:20:16 37° SW 15:23:32 10° SSE
Cosmos 1703 3.2 15:17:10 10° N 15:21:06 89° E 15:24:59 10° S
Cosmos 1777 Rocket 4.0 15:19:18 10° N 15:24:25 58° ENE 15:29:31 10° SSE
ADEOS Rocket 4.4 15:20:33 10° NE 15:25:35 19° E 15:30:18 10° SE
OAO 3 Rocket 3.4 15:21:29 10° WNW 15:26:22 64° N 15:29:11 25° E
FengYun 1-2 T 4.3 15:23:52 10° SSE 15:29:30 89° WSW 15:35:09 10° NNW
Meteosat 1 Rocket2 3.0 15:26:32 10° WSW 15:30:12 51° S 15:31:42 30° ESE
Cosmos 2278 Rocket 3.4 15:26:09 10° SW 15:31:31 43° WNW 15:36:55 10° N
Unknown 2.3 15:30:54 10° NW 15:33:33 69° NE 15:33:45 65° E
Cosmos 2297 3.8 15:28:31 10° S 15:34:00 52° ESE 15:39:32 10° NNE
Cosmos 1242 Rocket 4.3 15:31:27 10° NNW 15:34:50 36° W 15:38:12 10° SSW
Cosmos 1812 Rocket 3.4 15:31:39 10° S 15:36:03 81° E 15:40:30 10° N
Delta 2 Rocket 3.4 15:33:50 10° W 15:37:14 47° NNW 15:38:13 35° NE
Cosmos 1076 Rocket 4.1 15:35:18 10° NNE 15:39:07 34° ENE 15:39:07 34° ENE
Meteor 1-11 4.4 15:33:29 10° N 15:39:16 79° W 15:45:04 10° S
ATLAS 3B R/B 2.8 15:33:30 10° S 15:40:04 51° ESE 15:45:04 17° NE
Cosmos 1763 Rocket 4.2 15:35:37 10° SSE 15:40:07 30° E 15:40:07 30° E
CSL-04 Rocket 3.7 15:39:56 10° SSE 15:45:29 85° WSW 15:51:01 10° NNW
YAOGAN 1 2.7 15:41:54 10° S 15:46:12 76° WSW 15:50:32 10° NNW
Cosmos 2100 Rocket 4.3 15:43:04 10° NNE 15:48:48 39° E 15:51:37 26° SE
CENTAUR R/B 2.3 15:43:38 10° SSW 15:49:07 63° ESE 15:53:31 20° NE
NOAA 11 4.0 15:54:58 10° SSE 16:00:25 77° ENE 16:05:51 10° N
Lacrosse 5 3.2 15:56:35 10° NNW 15:59:49 24° NNE 15:59:49 24° NNE
Cosmos 1153 Rocket 4.4 15:57:07 10° N 16:03:16 88° W 16:09:25 10° S
IRS-1A Rocket 4.2 16:03:15 43° SE 16:04:44 58° ENE 16:10:07 10° N
CZ-3 Stage 3 1.9 16:03:50 10° W 16:07:06 42° W 16:07:06 42° W
Cosmos 1833 Rocket 2.7 16:08:47 10° NNW 16:14:25 80° WSW 16:17:29 28° SSE
Cosmos 1939 Rocket 3.1 16:14:54 65° WSW 16:15:01 65° W 16:19:01 10° NNW
USA 234 3.9 16:22:27 36° SSE 16:22:27 36° SSE 16:27:04 10° SSW
Ariane Rocket 3.5 16:32:23 37° SSW 16:34:14 58° W 16:39:16 10° NNW
Cosmos 1459 Rocket 4.0 16:35:24 10° N 16:41:38 77° W 16:43:08 54° SSW
Cosmos 2082 Rocket 2.4 16:37:18 10° NNW 16:42:40 66° W 16:42:40 66° W
H-2A R/B 4.0 15:27:20 10° WSW 16:46:21 86° SSE 16:49:45 57° E
NOSS 3-3 (A) 4.4 16:43:38 10° NNW 16:51:32 83° ENE 16:51:35 82° ENE
NOSS 3-3 (C) 4.4 16:43:44 10° NNW 16:51:38 82° ENE 16:51:38 82° ENE
BREEZE M DEB (TANK) 4.3 17:00:01 10° NW 17:02:10 40° NW 17:02:10 40° NW
ADEOS Rocket 3.7 17:04:07 10° N 17:11:30 62° WNW 17:18:14 10° SSW
ATLAS 3B R/B 4.4 17:25:28 10° WSW 17:30:56 26° NW 17:32:24 24° NNW
ATLAS 2AS CENTAUR R/B 4.2 23:41:33 35° NE 23:41:33 35° NE 23:45:48 10° NNE
